Weather History for YBRM - November, 2013

Change the Weather History Date:

Sunday, November 10, 2013

  Actual Average Record
Temperature  
Mean Temperature 84 °F -  
Max Temperature 92 °F 92 °F - ()
Min Temperature 76 °F 78 °F - ()
Cooling Degree Days 19    
Growing Degree Days 34 (Base 50)    
Moisture  
Dew Point 77 °F    
Average Humidity 76    
Maximum Humidity 100    
Minimum Humidity 51    
Precipitation  
Precipitation 0.00 in 0.03 in - ()
Sea Level Pressure  
Sea Level Pressure 29.77 in    
Wind  
Wind Speed 7 mph ()    
Max Wind Speed 17 mph    
Max Gust Speed -    
Visibility 7.6 miles    
Events      
T = Trace of Precipitation, MM = Missing Value Source: Averaged Metar Reports

Daily Weather History Graph

Daily Weather History Graph

Search for Another Location

Airport or City:

Trip Planner

Search our weather history database for the weather conditions in past years. The results will help you decide how hot, cold, wet, or windy it might be!

Date:

Astronomy

Nov. 10, 2013 Rise Set
Actual Time 5:08 AM AWST 6:01 PM AWST
Civil Twilight 4:45 AM AWST 6:24 PM AWST
Nautical Twilight 4:18 AM AWST 6:51 PM AWST
Astronomical Twilight 3:50 AM AWST 7:19 PM AWST
Moon 11:29 AM AWST (11/10) No Moon Set
Length of Visible Light 13h 39m
Length of Day
12h 53m
Waxing Crescent, 49% of the Moon is Illuminated
Nov 10
Waxing Crescent
Nov 10
First Quarter
Nov 17
Full
Nov 26
Last Quarter
Dec 3
New

Hourly Weather History & Observations

Time (AWST) Temp. Heat Index Dew Point Humidity Pressure Visibility Wind Dir Wind Speed Gust Speed Precip Events Conditions
12:00 AM 82 °F - 79 °F 87% 29.79 in - NW 4.6 mph - -  
12:00 AM 82.4 °F 92.4 °F 78.8 °F 89% 29.77 in 6.2 mi NW 4.6 mph - N/A   Unknown
12:30 AM 82.4 °F 92.4 °F 78.8 °F 89% 29.77 in 6.2 mi NNW 4.6 mph - N/A   Unknown
1:00 AM 82.4 °F 92.4 °F 78.8 °F 89% 29.77 in 6.2 mi North 5.8 mph - N/A   Unknown
1:30 AM 80.6 °F 88.1 °F 78.8 °F 94% 29.77 in 6.2 mi NW 5.8 mph - N/A   Scattered Clouds
2:00 AM 81 °F - 78 °F 90% 29.78 in - North 6.9 mph - -  
2:00 AM 80.6 °F 88.1 °F 78.8 °F 94% 29.77 in 6.2 mi North 6.9 mph - N/A   Unknown
2:30 AM 80.6 °F 87.1 °F 77.0 °F 89% 29.77 in 6.2 mi North 5.8 mph - N/A   Unknown
3:00 AM 80 °F - 77 °F 89% 29.78 in - NNW 5.8 mph - -  
3:00 AM 80.6 °F 87.1 °F 77.0 °F 89% 29.77 in 6.2 mi NNW 5.8 mph - N/A   Unknown
3:30 AM 78.8 °F - 77.0 °F 94% 29.77 in 6.2 mi North 5.8 mph - N/A   Scattered Clouds
4:00 AM 78.8 °F - 77.0 °F 94% 29.77 in 6.2 mi NNE 3.5 mph - N/A   Scattered Clouds
4:30 AM 77.0 °F - 77.0 °F 100% 29.77 in 5.6 mi North 4.6 mph - N/A   Unknown
5:00 AM 77 °F - 76 °F 95% 29.80 in - NNE 3.5 mph - -  
5:00 AM 77.0 °F - 75.2 °F 94% 29.80 in 4.3 mi NNE 3.5 mph - N/A   Scattered Clouds
5:30 AM 77.0 °F - 75.2 °F 94% 29.80 in 6.2 mi NNE 2.3 mph - N/A   Partly Cloudy
6:00 AM 80 °F - 78 °F 92% 29.82 in 6 mi NNW 3.5 mph - -   Mist
6:00 AM 80.6 °F 88.1 °F 78.8 °F 94% 29.80 in 6.2 mi NNW 3.5 mph - N/A   Partly Cloudy
7:00 AM 86.0 °F 96.9 °F 77.0 °F 74% 29.83 in 6.2 mi WNW 8.1 mph - N/A   Partly Cloudy
7:30 AM 86.0 °F 96.9 °F 77.0 °F 74% 29.86 in 6.2 mi West 10.4 mph - N/A   Scattered Clouds
8:00 AM 87 °F - 76 °F 64% 29.86 in - West 10.4 mph - -  
8:00 AM 86.0 °F 96.9 °F 77.0 °F 74% 29.86 in 6.2 mi West 10.4 mph - N/A   Scattered Clouds
8:30 AM 86.0 °F 96.9 °F 77.0 °F 74% 29.83 in 6.2 mi WSW 9.2 mph - N/A   Partly Cloudy
9:00 AM 88 °F - 77 °F 62% 29.85 in 19 mi West 9.2 mph - -   Haze
9:00 AM 87.8 °F 99.7 °F 77.0 °F 70% 29.83 in 6.2 mi West 9.2 mph - N/A   Partly Cloudy
9:30 AM 89.6 °F 102.2 °F 77.0 °F 66% 29.83 in 6.2 mi West 10.4 mph - N/A   Partly Cloudy
10:00 AM 89.6 °F 99.8 °F 75.2 °F 62% 29.83 in 6.2 mi West 9.2 mph - N/A   Partly Cloudy
10:30 AM 89.6 °F 99.8 °F 75.2 °F 62% 29.80 in 6.2 mi West 9.2 mph - N/A   Partly Cloudy
11:00 AM 89 °F - 75 °F 55% 29.81 in - West 10.4 mph - -  
11:00 AM 89.6 °F 99.8 °F 75.2 °F 62% 29.80 in 6.2 mi West 10.4 mph - N/A   Partly Cloudy
11:30 AM 89.6 °F 99.8 °F 75.2 °F 62% 29.77 in 6.2 mi West 11.5 mph - N/A   Partly Cloudy
12:00 PM 90 °F - 74 °F 51% 29.77 in 19 mi West 11.5 mph - -   Haze
12:00 PM 89.6 °F 99.8 °F 75.2 °F 62% 29.77 in 6.2 mi West 11.5 mph - N/A   Partly Cloudy
12:30 PM 89.6 °F 99.8 °F 75.2 °F 62% 29.74 in 6.2 mi West 13.8 mph - N/A   Partly Cloudy
1:00 PM 91.4 °F 102.5 °F 75.2 °F 59% 29.74 in 6.2 mi West 12.7 mph - N/A   Partly Cloudy
1:30 PM 91.4 °F 102.5 °F 75.2 °F 59% 29.71 in 6.2 mi West 13.8 mph - N/A   Partly Cloudy
2:00 PM 90 °F - 76 °F 54% 29.72 in - WNW 15.0 mph - -  
2:00 PM 89.6 °F 99.8 °F 75.2 °F 62% 29.71 in 6.2 mi WNW 15.0 mph - N/A   Partly Cloudy
2:30 PM 87.8 °F 97.6 °F 75.2 °F 66% 29.71 in 6.2 mi WNW 17.3 mph - N/A   Partly Cloudy
3:00 PM 90 °F - 76 °F 56% 29.71 in 19 mi West 12.7 mph - -   Scattered Clouds
3:00 PM 89.6 °F 102.2 °F 77.0 °F 66% 29.71 in 6.2 mi West 12.7 mph - N/A   Partly Cloudy
3:30 PM 87.8 °F 99.7 °F 77.0 °F 70% 29.71 in - West 15.0 mph - N/A   Clear
4:00 PM 87.8 °F 97.6 °F 75.2 °F 66% 29.68 in - West 15.0 mph - N/A   Clear
4:30 PM 87.8 °F 97.6 °F 75.2 °F 66% 29.71 in - West 13.8 mph - N/A   Clear
5:00 PM 87 °F - 76 °F 63% 29.72 in - WNW 15.0 mph - -  
5:00 PM 87.8 °F 99.7 °F 77.0 °F 70% 29.71 in - WNW 15.0 mph - N/A   Clear
5:30 PM 86.0 °F 95.1 °F 75.2 °F 70% 29.71 in - WNW 12.7 mph - N/A   Clear
6:00 PM 85 °F - 76 °F 69% 29.72 in 19 mi WNW 10.4 mph - -   Haze
6:00 PM 86.0 °F 96.9 °F 77.0 °F 74% 29.71 in - WNW 10.4 mph - N/A   Clear
6:30 PM 84.2 °F 94.1 °F 77.0 °F 79% 29.71 in - WNW 10.4 mph - N/A   Clear
7:00 PM 84.2 °F 94.1 °F 77.0 °F 79% 29.74 in - WNW 10.4 mph - N/A   Clear
7:30 PM 84.2 °F 94.1 °F 77.0 °F 79% 29.74 in - West 8.1 mph - N/A   Clear
8:00 PM 83 °F - 78 °F 79% 29.76 in - West 8.1 mph - -  
8:00 PM 84.2 °F 94.1 °F 77.0 °F 79% 29.74 in - West 8.1 mph - N/A   Clear
8:30 PM 84.2 °F 94.1 °F 77.0 °F 79% 29.77 in - WNW 6.9 mph - N/A   Clear
9:00 PM 83 °F - 77 °F 79% 29.78 in 16 mi WNW 5.8 mph - -   Haze
9:00 PM 82.4 °F 90.9 °F 77.0 °F 84% 29.77 in - WNW 5.8 mph - N/A   Clear
9:30 PM 82.4 °F 90.9 °F 77.0 °F 84% 29.77 in 6.2 mi NW 5.8 mph - N/A   Unknown
10:00 PM 82.4 °F 90.9 °F 77.0 °F 84% 29.77 in 6.2 mi NW 5.8 mph - N/A   Unknown
10:30 PM 82.4 °F 90.9 °F 77.0 °F 84% 29.77 in 6.2 mi WNW 4.6 mph - N/A   Unknown
11:00 PM 82 °F - 78 °F 83% 29.78 in - West 5.8 mph - -  
11:00 PM 82.4 °F 90.9 °F 77.0 °F 84% 29.77 in 6.2 mi West 5.8 mph - N/A   Unknown
11:30 PM 82.4 °F 90.9 °F 77.0 °F 84% 29.77 in 6.2 mi West 6.9 mph - N/A   Unknown